RYR877F LIMJ-LICJ

Flight info

Callsign RYR877F
Flight time 1h 7m
Altitude 37000
Route UNITA DCT KONER DCT ELB DCT PODOX DCT TINTO DCT GIANO
Aircraft B738/M-SDE3FGILRWY/SB1

Departure

Time 2026-04-23 18:23
Airport Genoa Cristoforo Colombo Airport (LIMJ)

Arrival

Time 2026-04-23 19:30
Airport Falcone–Borsellino Airport (LICJ)
Time Latitude Longitude Altitude Speed Heading
2026-04-23 17:43 44.41433 8.84953 19 ft 0 kts 60°
2026-04-23 18:15 44.41426 8.84936 19 ft 4 kts 60°
2026-04-23 18:16 44.41412 8.84903 19 ft 4 kts 60°
2026-04-23 18:16 44.41398 8.84871 21 ft 4 kts 60°
2026-04-23 18:16 44.41385 8.84839 21 ft 4 kts 71°
2026-04-23 18:17 44.41384 8.84785 23 ft 0 kts 105°
2026-04-23 18:19 44.41383 8.84785 23 ft 0 kts 105°
2026-04-23 18:19 44.41376 8.84823 21 ft 9 kts 105°
2026-04-23 18:20 44.41355 8.84936 20 ft 13 kts 102°
2026-04-23 18:20 44.41334 8.85058 19 ft 13 kts 105°
2026-04-23 18:20 44.41311 8.85178 19 ft 13 kts 105°
2026-04-23 18:20 44.41266 8.85274 19 ft 12 kts 148°
2026-04-23 18:21 44.41196 8.85269 19 ft 10 kts 195°
2026-04-23 18:21 44.41132 8.85245 20 ft 9 kts 195°
2026-04-23 18:21 44.41071 8.85216 19 ft 10 kts 215°
2026-04-23 18:21 44.41014 8.85179 16 ft 8 kts 185°
2026-04-23 18:22 44.41008 8.85154 17 ft 4 kts 272°
2026-04-23 18:22 44.41044 8.84960 18 ft 52 kts 285°
2026-04-23 18:22 44.41206 8.84131 21 ft 121 kts 285°
2026-04-23 18:22 44.41475 8.82773 142 ft 164 kts 285°
2026-04-23 18:23 44.41689 8.81734 630 ft 164 kts 285°
2026-04-23 18:23 44.41001 8.78496 2319 ft 165 kts 209°
2026-04-23 18:24 44.38791 8.78605 3747 ft 173 kts 153°
2026-04-23 18:24 44.37623 8.79443 4063 ft 204 kts 152°
2026-04-23 18:24 44.36328 8.80385 4488 ft 218 kts 151°
2026-04-23 18:25 44.33405 8.82027 5491 ft 248 kts 165°
2026-04-23 18:25 44.31622 8.82588 5835 ft 272 kts 165°
2026-04-23 18:25 44.29741 8.83170 6521 ft 281 kts 165°
2026-04-23 18:25 44.27810 8.83771 7328 ft 284 kts 165°
2026-04-23 18:26 44.25904 8.84368 8206 ft 284 kts 165°
2026-04-23 18:26 44.23960 8.84983 9014 ft 288 kts 165°
2026-04-23 18:26 44.21992 8.85609 9812 ft 292 kts 165°
2026-04-23 18:26 44.19986 8.86249 10508 ft 299 kts 165°
2026-04-23 18:27 44.17874 8.86927 10722 ft 324 kts 165°
2026-04-23 18:27 44.15599 8.87656 10931 ft 346 kts 165°
2026-04-23 18:27 44.13235 8.88411 11417 ft 357 kts 165°
2026-04-23 18:27 44.10798 8.89187 12116 ft 361 kts 165°
2026-04-23 18:28 44.08332 8.89973 12878 ft 365 kts 165°
2026-04-23 18:28 44.05853 8.90828 13617 ft 369 kts 160°
2026-04-23 18:28 44.03495 8.92262 14318 ft 371 kts 148°
2026-04-23 18:28 44.01372 8.94301 15050 ft 371 kts 137°
2026-04-23 18:29 43.99401 8.96648 15776 ft 375 kts 136°
2026-04-23 18:29 43.97416 8.99021 16480 ft 379 kts 137°
2026-04-23 18:29 43.95386 9.01408 17185 ft 384 kts 137°
2026-04-23 18:29 43.93354 9.03770 17885 ft 388 kts 137°
2026-04-23 18:30 43.91268 9.06186 18544 ft 393 kts 137°
2026-04-23 18:30 43.89152 9.08632 19144 ft 397 kts 137°
2026-04-23 18:30 43.87024 9.11090 19782 ft 400 kts 137°
2026-04-23 18:30 43.84871 9.13575 20402 ft 403 kts 137°
2026-04-23 18:31 43.82710 9.16068 21027 ft 405 kts 137°
2026-04-23 18:31 43.80531 9.18580 21631 ft 408 kts 137°
2026-04-23 18:31 43.78359 9.21082 22208 ft 412 kts 137°
2026-04-23 18:31 43.76145 9.23630 22783 ft 415 kts 138°
2026-04-23 18:32 43.73912 9.26198 23352 ft 418 kts 138°
2026-04-23 18:32 43.71664 9.28780 23887 ft 421 kts 138°
2026-04-23 18:32 43.69403 9.31374 24353 ft 424 kts 138°
2026-04-23 18:32 43.67121 9.33991 24831 ft 426 kts 138°
2026-04-23 18:33 43.64827 9.36618 25294 ft 429 kts 138°
2026-04-23 18:33 43.62526 9.39250 25741 ft 431 kts 138°
2026-04-23 18:33 43.60233 9.41871 26183 ft 434 kts 138°
2026-04-23 18:33 43.57896 9.44539 26612 ft 436 kts 138°
2026-04-23 18:34 43.55547 9.47219 27041 ft 439 kts 137°
2026-04-23 18:34 43.53179 9.49919 27397 ft 443 kts 137°
2026-04-23 18:34 43.50788 9.52639 27802 ft 445 kts 137°
2026-04-23 18:34 43.48418 9.55333 28218 ft 447 kts 137°
2026-04-23 18:35 43.46003 9.58075 28619 ft 449 kts 137°
2026-04-23 18:35 43.43579 9.60823 29000 ft 452 kts 137°
2026-04-23 18:35 43.41144 9.63583 29358 ft 455 kts 138°
2026-04-23 18:35 43.38709 9.66340 29673 ft 458 kts 138°
2026-04-23 18:36 43.36233 9.69139 30020 ft 460 kts 138°
2026-04-23 18:36 43.33753 9.71941 30361 ft 462 kts 138°
2026-04-23 18:36 43.31264 9.74750 30658 ft 463 kts 138°
2026-04-23 18:36 43.28767 9.77563 31016 ft 463 kts 138°
2026-04-23 18:37 43.26307 9.80333 31419 ft 462 kts 138°
2026-04-23 18:37 43.23820 9.83130 31814 ft 461 kts 138°
2026-04-23 18:37 43.21340 9.85916 32154 ft 462 kts 138°
2026-04-23 18:37 43.18846 9.88715 32469 ft 463 kts 138°
2026-04-23 18:38 43.16351 9.91514 32819 ft 463 kts 138°
2026-04-23 18:38 43.13856 9.94308 33216 ft 461 kts 138°
2026-04-23 18:38 43.11374 9.97084 33599 ft 461 kts 138°
2026-04-23 18:38 43.08891 9.99859 33941 ft 461 kts 138°
2026-04-23 18:39 43.06403 10.02637 34250 ft 461 kts 138°
2026-04-23 18:39 43.03918 10.05408 34539 ft 460 kts 138°
2026-04-23 18:39 43.01438 10.08171 34847 ft 460 kts 138°
2026-04-23 18:39 42.98987 10.10899 35144 ft 459 kts 138°
2026-04-23 18:40 42.96503 10.13660 35434 ft 459 kts 138°
2026-04-23 18:40 42.94019 10.16419 35709 ft 459 kts 138°
2026-04-23 18:40 42.91543 10.19166 35969 ft 459 kts 138°
2026-04-23 18:40 42.89058 10.21920 36246 ft 459 kts 138°
2026-04-23 18:41 42.86610 10.24630 36511 ft 459 kts 138°
2026-04-23 18:41 42.84128 10.27375 36785 ft 458 kts 138°
2026-04-23 18:41 42.81653 10.30110 37050 ft 458 kts 138°
2026-04-23 18:41 42.79167 10.32855 37163 ft 461 kts 138°
2026-04-23 18:42 42.76669 10.35609 37163 ft 463 kts 139°
2026-04-23 18:42 42.71255 10.40267 37156 ft 464 kts 155°
2026-04-23 18:43 42.65096 10.42938 37155 ft 464 kts 162°
2026-04-23 18:43 42.58878 10.45311 37159 ft 463 kts 162°
2026-04-23 18:44 42.52721 10.47728 37162 ft 462 kts 162°
2026-04-23 18:44 42.46543 10.50195 37159 ft 462 kts 162°
2026-04-23 18:45 42.40359 10.52667 37159 ft 463 kts 162°
2026-04-23 18:45 42.34201 10.55120 37159 ft 464 kts 162°
2026-04-23 18:46 42.27990 10.57603 37170 ft 465 kts 160°
2026-04-23 18:46 42.22034 10.60994 37157 ft 464 kts 153°
2026-04-23 18:47 42.16197 10.64748 37153 ft 465 kts 153°
2026-04-23 18:47 42.10353 10.68458 37151 ft 467 kts 153°
2026-04-23 18:48 42.04438 10.72137 37157 ft 468 kts 153°
2026-04-23 18:48 41.98545 10.75771 37152 ft 468 kts 154°
2026-04-23 18:49 41.92618 10.79416 37144 ft 469 kts 153°
2026-04-23 18:49 41.86675 10.83067 37155 ft 469 kts 154°
2026-04-23 18:50 41.81737 10.86097 37145 ft 469 kts 154°
2026-04-23 18:50 41.74838 10.90320 37145 ft 468 kts 154°
2026-04-23 18:51 41.68912 10.93940 37146 ft 467 kts 154°
2026-04-23 18:51 41.62986 10.97553 37141 ft 467 kts 154°
2026-04-23 18:52 41.58074 11.00542 37146 ft 467 kts 154°
2026-04-23 18:52 41.51186 11.04727 37144 ft 466 kts 154°
2026-04-23 18:53 41.46265 11.07693 37145 ft 467 kts 154°
2026-04-23 18:53 41.40249 11.11040 37141 ft 467 kts 156°
2026-04-23 18:54 41.34210 11.14296 37149 ft 468 kts 156°
2026-04-23 18:54 41.28207 11.17550 37149 ft 469 kts 156°
2026-04-23 18:55 41.22150 11.20856 37157 ft 469 kts 155°
2026-04-23 18:55 41.16094 11.24166 37153 ft 470 kts 155°
2026-04-23 18:56 41.10037 11.27471 37151 ft 471 kts 155°
2026-04-23 18:56 41.03962 11.30777 37164 ft 472 kts 156°
2026-04-23 18:57 40.97906 11.34065 37151 ft 473 kts 155°
2026-04-23 18:57 40.91793 11.37378 37154 ft 474 kts 155°
2026-04-23 18:58 40.85667 11.40691 37153 ft 474 kts 156°
2026-04-23 18:58 40.79588 11.43972 37152 ft 475 kts 156°
2026-04-23 18:59 40.73462 11.47272 37144 ft 475 kts 156°
2026-04-23 18:59 40.67335 11.50566 37155 ft 475 kts 156°
2026-04-23 19:00 40.61212 11.53852 37151 ft 475 kts 156°
2026-04-23 19:00 40.55117 11.57116 37157 ft 475 kts 156°
2026-04-23 19:01 40.48967 11.60403 37156 ft 476 kts 156°
2026-04-23 19:01 40.42818 11.63682 37153 ft 477 kts 156°
2026-04-23 19:02 40.36700 11.66939 37154 ft 477 kts 156°
2026-04-23 19:02 40.30535 11.70214 37162 ft 478 kts 156°
2026-04-23 19:03 40.24386 11.73475 37161 ft 478 kts 156°
2026-04-23 19:03 40.18206 11.76745 37152 ft 479 kts 156°
2026-04-23 19:04 40.12022 11.80011 37154 ft 479 kts 156°
2026-04-23 19:04 40.05891 11.83241 37126 ft 463 kts 156°
2026-04-23 19:04 40.02942 11.84790 37132 ft 449 kts 156°
2026-04-23 19:05 40.00108 11.86279 36874 ft 443 kts 156°
2026-04-23 19:05 39.97223 11.87796 36022 ft 451 kts 155°
2026-04-23 19:05 39.94277 11.89346 35219 ft 458 kts 155°
2026-04-23 19:05 39.91303 11.90909 34511 ft 462 kts 155°
2026-04-23 19:06 39.88308 11.92480 33806 ft 464 kts 155°
2026-04-23 19:06 39.85305 11.94052 33042 ft 466 kts 155°
2026-04-23 19:06 39.82292 11.95627 32272 ft 467 kts 155°
2026-04-23 19:06 39.79316 11.97180 31780 ft 463 kts 154°
2026-04-23 19:07 39.76342 11.98729 31382 ft 456 kts 154°
2026-04-23 19:07 39.73415 12.00252 30953 ft 451 kts 154°
2026-04-23 19:07 39.70512 12.01763 30474 ft 447 kts 154°
2026-04-23 19:07 39.67633 12.03261 29950 ft 444 kts 154°
2026-04-23 19:08 39.64769 12.04751 29384 ft 440 kts 153°
2026-04-23 19:08 39.61958 12.06213 28732 ft 439 kts 154°
2026-04-23 19:08 39.59127 12.07685 28157 ft 436 kts 154°
2026-04-23 19:08 39.56315 12.09143 27642 ft 432 kts 154°
2026-04-23 19:09 39.53532 12.10585 27136 ft 426 kts 154°
2026-04-23 19:09 39.50804 12.11996 26417 ft 419 kts 154°
2026-04-23 19:09 39.48095 12.13397 25539 ft 418 kts 154°
2026-04-23 19:09 39.45437 12.14773 25091 ft 415 kts 154°
2026-04-23 19:10 39.42751 12.16161 24579 ft 414 kts 155°
2026-04-23 19:10 39.40077 12.17542 24126 ft 411 kts 155°
2026-04-23 19:10 39.37425 12.18910 23625 ft 409 kts 155°
2026-04-23 19:10 39.34779 12.20273 23103 ft 407 kts 155°
2026-04-23 19:11 39.32185 12.21609 22626 ft 404 kts 155°
2026-04-23 19:11 39.29576 12.22950 22158 ft 401 kts 155°
2026-04-23 19:11 39.26990 12.24280 21695 ft 397 kts 155°
2026-04-23 19:11 39.24429 12.25595 21249 ft 395 kts 155°
2026-04-23 19:12 39.22739 12.26462 20956 ft 393 kts 155°
2026-04-23 19:12 39.19378 12.28186 20368 ft 390 kts 155°
2026-04-23 19:12 39.16862 12.29476 19929 ft 388 kts 155°
2026-04-23 19:12 39.14353 12.30761 19495 ft 386 kts 155°
2026-04-23 19:13 39.11887 12.32023 19061 ft 385 kts 155°
2026-04-23 19:13 39.09395 12.33297 18614 ft 384 kts 155°
2026-04-23 19:13 39.06912 12.34566 18120 ft 383 kts 155°
2026-04-23 19:13 39.04431 12.35833 17656 ft 381 kts 155°
2026-04-23 19:14 39.01964 12.37091 17200 ft 379 kts 155°
2026-04-23 19:14 38.99551 12.38321 16762 ft 376 kts 155°
2026-04-23 19:14 38.97120 12.39560 16330 ft 374 kts 155°
2026-04-23 19:14 38.94708 12.40788 15920 ft 372 kts 155°
2026-04-23 19:15 38.92306 12.42010 15507 ft 370 kts 155°
2026-04-23 19:15 38.89917 12.43224 15061 ft 368 kts 155°
2026-04-23 19:15 38.87534 12.44434 14639 ft 367 kts 156°
2026-04-23 19:15 38.85188 12.45708 14224 ft 364 kts 153°
2026-04-23 19:16 38.82888 12.47076 13789 ft 363 kts 152°
2026-04-23 19:16 38.80641 12.48450 13328 ft 361 kts 152°
2026-04-23 19:16 38.78381 12.49837 12888 ft 359 kts 152°
2026-04-23 19:17 38.73899 12.52565 12047 ft 354 kts 152°
2026-04-23 19:17 38.71682 12.53904 11639 ft 351 kts 153°
2026-04-23 19:17 38.69475 12.55232 11236 ft 349 kts 153°
2026-04-23 19:17 38.67279 12.56550 10830 ft 347 kts 153°
2026-04-23 19:18 38.65138 12.57834 10650 ft 338 kts 153°
2026-04-23 19:18 38.63035 12.59092 10493 ft 329 kts 153°
2026-04-23 19:18 38.60985 12.60318 10342 ft 321 kts 153°
2026-04-23 19:18 38.58986 12.61514 10203 ft 312 kts 153°
2026-04-23 19:19 38.55098 12.63838 9691 ft 305 kts 153°
2026-04-23 19:19 38.53178 12.64986 9347 ft 304 kts 153°
2026-04-23 19:20 38.49376 12.67255 8723 ft 301 kts 152°
2026-04-23 19:20 38.47482 12.68385 8434 ft 299 kts 152°
2026-04-23 19:20 38.45596 12.69508 8181 ft 295 kts 152°
2026-04-23 19:20 38.43780 12.70587 8066 ft 287 kts 152°
2026-04-23 19:21 38.41982 12.71649 7820 ft 285 kts 153°
2026-04-23 19:21 38.38375 12.73714 7271 ft 282 kts 153°
2026-04-23 19:21 38.36581 12.74737 6994 ft 281 kts 153°
2026-04-23 19:22 38.34797 12.75754 6717 ft 280 kts 153°
2026-04-23 19:22 38.33023 12.76767 6434 ft 279 kts 152°
2026-04-23 19:22 38.29514 12.78769 5857 ft 276 kts 152°
2026-04-23 19:23 38.27764 12.79768 5556 ft 275 kts 152°
2026-04-23 19:23 38.26018 12.80764 5257 ft 273 kts 152°
2026-04-23 19:23 38.24283 12.81753 4968 ft 271 kts 152°
2026-04-23 19:24 38.20887 12.83689 4405 ft 267 kts 152°
2026-04-23 19:24 38.19195 12.84653 4133 ft 265 kts 152°
2026-04-23 19:24 38.15888 12.86532 3624 ft 249 kts 152°
2026-04-23 19:25 38.12943 12.88267 3147 ft 220 kts 140°
2026-04-23 19:25 38.12166 12.91381 2792 ft 183 kts 78°
2026-04-23 19:26 38.12721 12.94496 2435 ft 180 kts 68°
2026-04-23 19:26 38.13182 12.95988 2190 ft 181 kts 65°
2026-04-23 19:27 38.14140 12.98846 1724 ft 170 kts 64°
2026-04-23 19:27 38.15452 13.02763 1128 ft 143 kts 65°
2026-04-23 19:28 38.16229 13.05059 690 ft 141 kts 63°
2026-04-23 19:28 38.16988 13.07304 314 ft 140 kts 64°
2026-04-23 19:29 38.17361 13.08448 135 ft 138 kts 63°
2026-04-23 19:29 38.17945 13.10179 52 ft 56 kts 67°
2026-04-23 19:30 38.18120 13.10674 52 ft 11 kts 56°
2026-04-23 19:30 38.18172 13.10689 51 ft 10 kts 283°
2026-04-23 19:30 38.18187 13.10524 52 ft 4 kts 277°
2026-04-23 19:31 38.18190 13.10490 50 ft 4 kts 277°
2026-04-23 19:31 38.18192 13.10478 49 ft 0 kts 277°
2026-04-23 19:31 38.18192 13.10473 50 ft 2 kts 277°
2026-04-23 19:31 38.18216 13.10437 51 ft 11 kts 349°
2026-04-23 19:32 38.18270 13.10530 51 ft 18 kts 66°
2026-04-23 19:32 38.18327 13.10695 49 ft 21 kts 66°
2026-04-23 19:32 38.18383 13.10863 51 ft 21 kts 67°
2026-04-23 19:32 38.18447 13.10934 52 ft 12 kts 353°
2026-04-23 19:33 38.18496 13.10970 52 ft 7 kts 63°
2026-04-23 19:33 38.18534 13.10974 52 ft 6 kts 338°
2026-04-23 19:33 38.18638 13.10920 52 ft 8 kts 344°
2026-04-23 19:34 38.18675 13.10964 52 ft 6 kts 67°
2026-04-23 19:34 38.18679 13.10977 52 ft 0 kts 68°